Terminal Aerodrome Forecast
Issued by NWS Atlanta, GA

Home | Current Version | Previous Version | Text Only | Print | Product List | Glossary On
Versions: 1 2 3 4 5 6 7 8 9 10 11 12 13 14 15 16 17 18 19 20 21 22 23 24 25 26 27 28 29 30 31 32 33 34 35 36
460
FTUS42 KFFC 091120
TAFATL
TAF
KATL 091120Z 0912/1018 29014G24KT P6SM FEW025 BKN030
      TEMPO 0916/0920 6SM -SHSN BKN025
     FM092000 30012G20KT P6SM BKN030 PROB30 0921/1001 6SM -SHSN
      BKN025
     FM100400 29010KT P6SM BKN040=

USA.gov is the U.S. government's official web portal to all federal, state and local government web resources and services.